Location: Unspecified
(0.0000°N, 0.0000°E)
Time: 23:02:35
(UTC+00:00)

Kosmos-2004 - Pass Details

Date: 25 May 2026
Orbit: 969 x 1012 km, 83.0° (Epoch: 6 June)

Event Time Altitude Azimuth Distance (km) Brightness Sun altitude
Exits shadow 02:33:22 13° 93° (E) 2,483 8.5 -46.4°
Maximum altitude 02:33:25 13° 93° (E) 2,483 8.5 -46.4°
Drops below altitude 10° 02:36:12 10° 66° (ENE) 2,720 8.9 -45.8°
Sets 02:40:14 0° 40° (NE) 3,673 9.7 -45.0°
